Regional Weather Roundup
Issued by NWS

Home | Current Version | Previous Version | Text Only | Print | Product List | Glossary Off
Versions: 1 2 3 4 5 6 7 8 9 10 11 12 13 14 15 16 17 18 19 20 21 22 23 24 25 26 27 28 29 30 31 32 33 34 35 36 37 38 39 40 41 42 43 44 45 46 47 48 49 50

778
ASUS44 KJAN 241410
RWRMS

MISSISSIPPI HOURLY WEATHER ROUNDUP
NATIONAL WEATHER SERVICE JACKSON MS
800 AM CST MON NOV 24 2014

NOTE: "FAIR: INDICATES FEW OR NO CLOUDS BELOW 12,000 FEET WITH NO
SIGNIFICANT WEATHER AND/OR OBSTRUCTIONS TO VISIBILITY.

MSZ001>002-007>008-010>013-018>021-025>028-034>036-241500-
NORTHWEST MISSISSIPPI

CITY           SKY/WX    TMP DP  RH WIND       PRES   REMARKS
CLARKSDALE     FAIR      50  41  71 W16G22    29.85R
CLEVELAND      FAIR      51  45  80 NW12      29.86R
GREENWOOD      SUNNY     53  42  66 VRB7      29.86R
GREENVILLE     SUNNY     51  41  68 NW14      29.86R
GRENADA        FAIR      52  41  66 W8        29.85R
OLIVE BRANCH   MOSUNNY   46  43  87 W12G23    29.80R
OXFORD         FAIR      48  41  76 W14G24    29.83R
TUNICA         SUNNY     48  37  66 NW10      29.83R
$$

MSZ003>006-009-014>017-022>024-029>033-037>039-241500-
NORTHEAST MISSISSIPPI

CITY           SKY/WX    TMP DP  RH WIND       PRES   REMARKS
COLUMBUS AFB   MOSUNNY   58  47  66 W14       29.81R
CORINTH        CLOUDY    54  45  71 W16G26    29.76R
GOLDN TRIANGLE MOSUNNY   57  46  67 NW14G21   29.80R
STARKVILLE     FAIR      55  46  71 W10G17    29.82R
TUPELO         PTSUNNY   55  45  68 SW18G25   29.78R
$$

MSZ040-058-241500-
CENTRAL MISSISSIPPI

CITY           SKY/WX    TMP DP  RH WIND       PRES   REMARKS
JACKSON INTL   PTSUNNY   54  44  69 NW13G21   29.88R
JACKSON HAWKNS CLOUDY    53  43  68 NW12G18   29.88R
MERIDIAN KEY   PTSUNNY   62  58  86 W7        29.82R
MERIDIAN NAS   MOSUNNY   62  51  67 W15G29    29.83R
RAYMOND        CLOUDY    54  48  82 NW6       29.89R
VICKSBURG      SUNNY     53  43  68 W5        29.90R
$$

MSZ059>079-241500-
SOUTH MISSISSIPPI

CITY           SKY/WX    TMP DP  RH WIND       PRES   REMARKS
BROOKHAVEN     FAIR      55  50  82 NW7       29.89R
COLUMBIA       FAIR      63  59  88 MISG        N/A
HATTIESBURG    SUNNY     67  62  84 VRB7      29.84R
MCCOMB         PTSUNNY   57  51  80 NW9       29.87R
NATCHEZ        SUNNY     52  43  71 NW7       29.92R
PINE BELT      MOSUNNY   63  59  88 W6        29.85R
$$

MSZ080>082-241500-
COASTAL MISSISSIPPI

CITY           SKY/WX    TMP DP  RH WIND       PRES   REMARKS
BAY ST LOUIS   MOSUNNY   68  63  83 NW8       29.84R
BILOXI         SUNNY     68  68 100 VRB1      29.84R
PASCAGOULA     MOSUNNY   68  66  93 VRB3      29.83R
GULFPORT       MOSUNNY   68  65  90 W5        29.83R
$$



USA.gov is the U.S. government's official web portal to all federal, state and local government web resources and services.